Weather in Figueira da foz

Portugal     40°09′19″N   8°51′20″W
temp.,
°C
wind,
m/s
gust,
m/s
humid.,
%
clouds,
%
prec.,
mm/h
press.,
hPa
HPBL,
m
23 january, sat
sat2300:00+11w6117720 0.4 1019646
03:00+12w5107736 0.2 1019699
06:00+12wsw5108169 0.4 1017643
09:00+12sw61187100 0.2 1016950
12:00+13sw101690100 2.9 10141107
15:00+14wsw101694100 1.7 1011970
18:00+14w91695100 3.3 10111023
21:00+13wnw51187100 2.9 1012816
24 january, sun
sun2400:00+12wnw71287100 3.3 1014927
03:00+12wnw61186100 0.1 1015676
06:00+11wnw3791100 0.3 1016235
09:00+11nw1287100 0.1 1017126
12:00+13w1374100 0.2 1018691
15:00+13sw4895100 1.8 1014539
18:00+12s41093100 2.4 1013406
21:00+14ssw51295100 1.0 1013630
25 january, mon
mon2500:00+10se2391100 0.0 101985
03:00+15wsw7148897 0.4 1011723
06:00+9se238869 0.0 1017126
09:00+10se3685100 0.1 1018236
12:00+15w699299 1.4 1016506
15:00+15w598972 0.4 1016647
18:00+12sse369188 0.5 1019227
21:00+12sse3693100 0.0 1021190
26 january, tue
tue2600:00+14ssw3796100 0.5 1021313
03:00+14ssw51097100 1.3 1021469
06:00+13s479794 0.9 1023280
09:00+14ssw4897100 0.4 1024321
12:00+15sw4798100 1.2 1023290
15:00+15wsw4898100 0.3 1024361
18:00+14w3699100 3.9 1024231
21:00+14sw3599100 2.8 1027198
27 january, wed
wed2700:00+14ssw2499100 3.8 1027171
03:00+14ssw1299100 0.0 102557
06:00+14ssw1299100 0.2 102663
09:00+15ssw2398100 0.0 1027128
12:00+16ssw3592100 0.1 1027348
15:00+17sw3585100 0.1 1025524
18:00+14sw249880 0.1 102698
21:00+13s239827 0.0 102770